Date,TemperatureHighF,TemperatureAvgF,TemperatureLowF,DewpointHighF,DewpointAvgF,DewpointLowF,HumidityHigh,HumidityAvg,HumidityLow,PressureMaxIn,PressureMinIn,WindSpeedMaxMPH,WindSpeedAvgMPH,GustSpeedMaxMPH,PrecipitationSumIn
2013-2-1,65,49,42,46,43,41,74,66,60,30.30,30.16,12,2,12,0.00
2013-2-2,61,47,40,46,42,40,75,68,55,30.27,30.15,17,5,20,0.01
2013-2-3,50,48,46,43,43,42,71,67,64,30.27,30.13,9,1,11,0.00
2013-2-4,55,47,43,45,43,42,75,68,62,30.19,29.88,29,5,33,0.11
2013-2-5,51,48,46,44,43,43,74,68,63,30.04,29.86,31,12,34,0.30
2013-2-6,50,46,42,44,43,41,74,68,64,30.04,29.78,30,10,36,0.01
2013-2-7,47,42,36,43,41,38,75,68,63,30.14,29.88,19,4,29,0.12
2013-2-8,47,41,32,41,39,37,76,70,63,30.25,30.09,28,8,29,0.01
2013-2-9,47,44,39,41,39,37,75,65,62,30.26,30.22,17,3,17,0.01
2013-2-10,50,46,44,42,40,39,77,69,62,30.30,30.24,20,4,21,0.01
2013-2-11,52,46,42,42,41,40,75,69,62,30.37,30.27,12,2,15,0.05
2013-2-12,50,49,46,45,43,41,65,62,62,30.46,30.36,20,5,20,0.02
2013-2-13,53,48,44,47,44,43,71,64,62,30.48,30.40,16,3,16,0.04
2013-2-14,58,48,41,49,46,44,75,65,62,30.51,30.33,14,2,15,0.00
2013-2-15,57,46,39,51,47,44,74,66,63,30.40,30.15,16,2,16,0.01
2013-2-16,52,46,40,54,49,47,75,67,62,30.26,30.20,28,5,28,0.07
2013-2-17,54,43,37,50,48,44,77,69,63,30.26,29.97,20,2,22,0.05
2013-2-18,47,42,36,50,48,46,74,68,64,30.03,29.59,17,6,22,0.15
2013-2-19,50,43,37,50,48,45,76,70,62,30.01,29.59,21,4,22,0.19
2013-2-20,48,42,34,54,48,43,75,68,64,30.12,29.97,32,6,35,0.17
2013-2-21,48,46,42,52,50,46,76,69,63,30.18,30.07,33,9,35,0.09
2013-2-22,49,46,43,51,48,42,76,69,62,30.14,29.89,46,15,48,0.57
2013-2-23,50,44,39,50,47,41,77,73,65,30.39,30.07,37,9,42,0.02
2013-2-24,51,45,39,50,48,43,76,70,64,30.39,29.99,47,7,47,0.17
2013-2-25,50,46,40,52,46,43,77,73,63,30.35,29.99,37,12,47,0.18
2013-2-26,54,43,35,52,48,45,76,70,54,30.34,30.18,18,4,21,0.00
2013-2-27,51,47,43,50,48,45,77,65,62,30.23,30.13,32,5,34,0.09
2013-2-28,51,51,50,51,48,45,63,62,62,30.41,30.13,31,13,34,0.57